CAPE
9 7 6 12 11 9 6 32 11 25 21 12 4 3 8 6 4 0 0 0 0 0 0 0 0 0 0 0 0 0 21 141 235 127 145 0 0 0 0 0 0 0 0 0 0
6 5 4 10 10 10 5 26 25 15 12 5 8 5 3 0 0 0 0 0 0 0 0 0 0 0 0 0 0 0 0 8 52 38 0 0 0 0 0 0 0 0 0 0 0
4 4 4 7 12 11 13 7 13 12 3 2 3 3 3 0 0 0 0 0 0 0 0 0 0 0 0 0 0 0 0 0 0 0 0 0 0 0 0 0 0 0 0 0 0
0 2 4 3 10 11 7 9 10 9 5 6 3 7 17 0 0 0 0 0 0 0 0 0 0 0 0 0 0 0 0 1 3 0 0 0 0 0 0 0 0 0 0 0 0
0 1 4 5 9 8 4 7 9 5 3 2 6 12 6 0 0 0 0 0 0 0 0 0 0 0 0 0 0 0 1 73 5 0 0 0 0 0 0 0 0 0 0 0 0
1 2 4 5 5 4 1 2 2 3 4 6 3 12 0 0 0 0 0 0 0 0 0 0 0 0 0 0 0 0 0 31 1 0 0 0 0 0 0 0 0 0 0 0 0
0 0 1 1 0 0 0 1 2 3 6 9 2 6 1 0 0 0 0 0 0 0 0 0 0 0 0 0 0 0 0 0 0 0 0 0 0 0 0 0 0 5 0 0 0
2 2 0 0 0 0 0 0 0 2 5 7 8 8 0 0 0 0 0 0 0 0 0 0 0 0 0 0 0 0 0 0 0 0 0 0 0 0 0 0 0 0 0 0 0
0 0 0 0 0 0 0 0 0 0 0 2 2 1 0 0 0 0 0 0 0 0 0 0 0 0 0 0 0 0 0 0 0 0 0 0 0 0 0 0 0 0 0 0 0
0 0 0 0 0 0 0 0 0 0 0 0 0 1 0 0 0 0 0 0 0 0 0 0 0 0 0 0 0 0 0 0 0 0 0 0 0 0 0 0 0 0 0 0 0
0 0 0 0 0 0 0 0 0 0 0 0 0 0 0 0 0 0 0 0 0 0 0 0 0 0 0 0 0 0 0 0 0 0 0 0 0 0 0 0 0 0 0 0 0
0 0 0 0 0 0 0 0 0 0 0 0 0 0 0 0 0 0 0 0 0 0 0 6 0 0 0 69 18 4 11 2 0 0 0 0 0 0 0 0 0 0 0 0 0
1 0 0 0 0 0 0 0 0 0 0 0 0 0 0 0 0 0 0 0 1 0 0 8 24 30 178 243 118 48 22 1 0 0 0 0 0 0 0 0 0 0 0 0 0
0 0 0 2 0 0 0 0 0 0 0 0 0 0 0 0 0 0 0 17 123 196 96 137 58 139 93 141 148 81 26 0 0 0 23 0 0 0 0 0 0 0 0 0 0
0 1 0 4 0 0 0 0 0 0 0 0 0 0 0 0 0 1 0 24 129 139 172 117 284 134 157 94 123 88 75 78 0 0 0 0 0 0 0 0 0 0 0 0 0
0 0 5 0 0 0 0 0 0 0 0 3 0 0 0 0 2 0 0 0 14 114 109 96 80 120 46 0 74 3 0 0 0 0 0 0 0 0 0 0 0 0 0 0 0
1 0 3 0 0 0 0 0 0 0 0 1 0 0 0 0 0 0 0 0 4 2 28 107 26 0 0 0 0 0 0 0 0 0 0 0 0 0 0 0 0 0 0 0 0
0 1 0 0 0 0 0 0 0 0 0 0 0 0 0 0 0 0 0 0 0 1 2 11 30 0 0 0 0 0 0 0 0 0 0 0 0 0 0 0 0 0 0 0 0
0 0 0 0 0 0 0 0 0 0 0 0 0 0 0 0 0 0 0 0 0 0 0 0 0 0 0 0 0 0 0 0 0 0 0 0 0 0 0 0 0 0 0 0 0
0 0 0 0 0 0 0 0 0 0 0 0 0 0 0 0 0 0 0 0 0 0 0 0 0 0 0 0 0 0 0 0 0 0 0 0 0 0 0 0 0 0 0 0 0
0 0 0 0 0 0 0 0 0 0 0 0 0 0 0 0 0 0 0 0 0 0 0 0 0 0 0 0 0 0 0 0 0 0 0 0 0 0 0 0 0 0 0 0 0
0 0 0 0 0 0 0 0 0 0 0 0 0 0 0 0 0 0 0 0 0 0 0 0 0 0 0 0 0 0 0 0 0 0 0 0 0 0 0 0 0 0 0 0 0
0 0 0 0 0 0 0 0 0 0 0 0 0 0 0 0 0 0 0 0 0 0 0 0 0 0 0 0 0 0 0 0 0 0 0 0 0 0 0 0 0 0 0 0 0
0 0 0 0 0 0 0 0 0 0 0 0 0 0 0 0 0 0 0 0 0 0 0 0 0 0 0 0 0 0 0 0 0 0 0 0 0 0 0 0 0 0 0 0 0
0 0 0 0 0 0 0 0 0 0 0 0 0 0 0 0 0 0 0 0 0 0 0 0 0 0 0 0 0 0 0 0 0 0 0 0 0 0 0 0 0 0 0 0 0
0 0 0 0 0 0 0 0 0 0 0 0 0 0 0 0 0 0 0 0 0 0 0 0 0 0 0 0 0 0 0 0 0 0 0 0 0 0 0 0 0 0 0 0 0
0 0 0 0 0 0 0 0 0 0 0 0 0 0 0 0 0 0 0 0 0 0 0 0 0 0 0 0 0 0 0 0 0 0 0 0 0 0 0 0 0 0 0 0 0
CIN
-0 -0 -0 -0 -0 -0 -0 -2 -0 -1 -0 -0 -0 -1 -0 -0 -0 -0 -0 -0 -0 -0 -0 -0 -0 -0 -0 -0 -0 -0 -186 -139 -112 -135 -102 -0 -0 -0 -0 -0 -0 -0 -0 -0 -0
-0 -0 -0 -0 -0 -0 -0 -1 -1 -0 -0 -0 -0 -0 -0 -0 -0 -0 -0 -0 -0 -0 -0 -0 -0 -0 -0 -0 -0 -0 -0 -278 -219 -194 -0 -0 -0 -0 -0 -0 -0 -0 -0 -0 -0
-0 -0 -0 -0 -0 -0 -0 -0 -0 -0 -0 -0 -0 -0 -0 -0 -0 -0 -0 -0 -0 -0 -0 -0 -0 -0 -0 -0 -0 -0 -0 -0 -0 -0 -0 -0 -0 -0 -0 -0 -0 -0 -0 -0 -0
-0 -0 -0 -0 -0 -0 -0 -0 -0 -0 -0 -1 -2 -0 -1 -0 -0 -0 -0 -0 -0 -0 -0 -0 -0 -0 -0 -0 -0 -28 -0 -13 -68 -0 -0 -0 -0 -0 -0 -0 -0 -0 -0 -0 -0
-0 -0 -0 -0 -0 -0 -0 -0 -0 -0 -0 -1 -0 -0 -4 -0 -0 -0 -0 -0 -0 -0 -0 -0 -0 -0 -0 -0 -0 -0 -36 -250 -92 -0 -0 -0 -0 -0 -0 -0 -0 -0 -0 -0 -0
-0 -0 -0 -0 -0 -0 -0 -0 -0 -0 -0 -0 -0 -1 -0 -0 -0 -0 -0 -0 -0 -0 -0 -0 -0 -0 -0 -0 -0 -0 -0 -195 -86 -0 -0 -0 -0 -0 -0 -0 -0 -0 -0 -0 -0
-0 -0 -0 -0 -0 -0 -0 -0 -0 -0 -0 -0 -0 -0 -0 -0 -0 -0 -0 -0 -0 -0 -0 -0 -0 -0 -0 -0 -0 -0 -0 -0 -0 -0 -0 -0 -0 -0 -0 -0 -22 -332 -0 -0 -0
-0 -0 -0 -0 -0 -0 -0 -0 -0 -0 -0 -0 -0 -1 -0 -0 -0 -0 -0 -0 -0 -0 -0 -0 -0 -0 -0 -0 -0 -0 -0 -0 -0 -0 -0 -0 -0 -0 -0 -0 -0 -0 -0 -0 -0
-0 -0 -0 -0 -0 -0 -0 -0 -0 -0 -0 -0 -1 -1 -0 -0 -0 -0 -0 -0 -0 -0 -0 -0 -0 -0 -0 -0 -0 -0 -0 -0 -0 -0 -0 -0 -0 -0 -0 -0 -0 -0 -0 -0 -0
-0 -0 -0 -0 -0 -0 -0 -0 -0 -0 -0 -0 -0 -0 -0 -0 -0 -0 -0 -0 -0 -0 -0 -0 -0 -0 -0 -0 -0 -0 -0 -0 -0 -0 -0 -0 -0 -0 -0 -0 -0 -0 -0 -0 -0
-0 -0 -0 -0 -0 -0 -0 -0 -0 -0 -0 -0 -0 -0 -0 -0 -0 -0 -0 -0 -0 -0 -0 -0 -0 -0 -0 -0 -0 -0 -0 -0 -0 -0 -0 -0 -0 -0 -0 -0 -0 -0 -0 -0 -0
-0 -0 -0 -0 -0 -0 -0 -0 -0 -0 -0 -0 -0 -0 -0 -0 -0 -0 -0 -0 -0 -0 -0 -6 -0 -0 -0 -39 -30 -31 -18 -22 -0 -2 -0 -0 -0 -0 -0 -0 -0 -0 -0 -0 -0
-0 -0 -0 -0 -0 -0 -0 -0 -0 -0 -0 -0 -0 -0 -0 -0 -0 -49 -0 -0 -34 -0 -47 -15 -12 -16 -28 -16 -20 -35 -33 -49 -0 -0 -0 -0 -0 -0 -0 -0 -0 -0 -0 -0 -0
-0 -0 -0 -0 -0 -0 -0 -0 -0 -0 -0 -0 -0 -0 -0 -0 -0 -0 -0 -109 -92 -61 -64 -23 -54 -15 -41 -43 -17 -19 -74 -0 -0 -0 -19 -0 -0 -0 -0 -0 -0 -0 -0 -0 -0
-0 -0 -0 -1 -0 -0 -0 -0 -0 -0 -0 -0 -0 -0 -0 -0 -0 -16 -0 -111 -42 -41 -81 -35 -31 -34 -25 -30 -52 -22 -73 -70 -0 -0 -0 -0 -0 -0 -0 -0 -0 -0 -0 -0 -0
-0 -0 -0 -0 -0 -0 -0 -0 -0 -0 -0 -47 -0 -0 -0 -0 -70 -33 -0 -0 -107 -78 -114 -96 -147 -105 -31 -0 -83 -9 -0 -0 -0 -0 -0 -0 -0 -0 -0 -0 -0 -0 -0 -0 -0
-0 -0 -0 -0 -0 -0 -0 -0 -0 -0 -0 -11 -0 -0 -0 -0 -15 -0 -0 -0 -55 -102 -99 -105 -114 -0 -0 -0 -0 -0 -0 -0 -0 -0 -0 -0 -0 -0 -0 -0 -0 -0 -0 -0 -0
-0 -0 -0 -0 -0 -0 -0 -0 -0 -0 -0 -0 -0 -0 -0 -0 -0 -0 -0 -0 -0 -19 -116 -20 -21 -0 -0 -0 -0 -0 -1 -0 -0 -0 -0 -0 -0 -0 -0 -0 -0 -0 -0 -0 -0
-0 -0 -0 -0 -0 -0 -0 -0 -0 -0 -0 -0 -0 -0 -0 -0 -0 -0 -0 -0 -0 -0 -0 -0 -0 -0 -0 -0 -0 -0 -0 -0 -0 -0 -0 -0 -0 -0 -0 -0 -0 -0 -0 -0 -0
-0 -0 -0 -0 -0 -0 -0 -0 -0 -0 -0 -0 -0 -0 -0 -0 -0 -0 -0 -0 -0 -0 -0 -10 -0 -0 -0 -0 -0 -0 -0 -0 -0 -0 -0 -0 -0 -0 -0 -0 -0 -0 -0 -0 -0
-0 -0 -0 -0 -0 -0 -0 -0 -0 -0 -0 -0 -0 -0 -0 -0 -0 -0 -0 -0 -0 -0 -0 -0 -0 -0 -0 -0 -0 -0 -0 -0 -0 -0 -0 -0 -0 -0 -0 -0 -0 -0 -0 -0 -0
-0 -0 -0 -0 -0 -0 -0 -0 -0 -0 -0 -0 -0 -0 -0 -0 -0 -0 -0 -0 -0 -0 -0 -0 -0 -0 -0 -0 -0 -0 -0 -0 -0 -0 -0 -0 -0 -0 -0 -0 -0 -0 -0 -0 -0
-0 -0 -0 -0 -0 -0 -0 -0 -0 -0 -0 -0 -0 -0 -0 -0 -0 -0 -0 -0 -0 -0 -0 -0 -0 -0 -0 -0 -0 -0 -0 -0 -0 -0 -0 -0 -0 -0 -0 -0 -0 -0 -0 -0 -0
-0 -0 -0 -0 -0 -0 -0 -0 -0 -0 -0 -0 -0 -0 -0 -0 -0 -0 -0 -0 -0 -0 -0 -0 -0 -0 -0 -0 -0 -0 -0 -0 -0 -0 -0 -0 -0 -0 -0 -0 -0 -0 -0 -0 -0
-0 -0 -0 -0 -0 -0 -0 -0 -0 -0 -0 -0 -0 -0 -0 -0 -0 -0 -0 -0 -0 -0 -0 -0 -0 -0 -0 -0 -0 -0 -0 -0 -0 -0 -0 -0 -0 -0 -0 -0 -0 -0 -0 -0 -0
-0 -0 -0 -0 -0 -0 -0 -0 -0 -0 -0 -0 -0 -0 -0 -0 -0 -0 -0 -0 -0 -0 -0 -0 -0 -0 -0 -0 -0 -0 -0 -0 -0 -0 -0 -0 -0 -0 -0 -0 -0 -0 -0 -0 -0
-0 -0 -0 -0 -0 -0 -0 -0 -0 -0 -0 -0 -0 -0 -0 -0 -0 -0 -0 -0 -0 -0 -0 -0 -0 -0 -0 -0 -0 -0 -0 -0 -0 -0 -0 -0 -0 -0 -0 -0 -0 -0 -0 -0 -0
Wind_Speed
13 12 12 12 13 13 14 14 11 11 13 15 17 19 21 21 22 3 8 10 5 13 15 9 6 4 1 2 4 4 3 4 5 6 7 3 5 2 2 7 2 7 8 6 17
10 12 11 13 13 14 13 15 14 13 14 14 15 18 21 23 10 12 10 6 7 11 4 3 4 6 2 4 3 4 5 9 5 5 4 4 6 10 6 5 3 2 3 15 19
9 11 11 12 12 13 12 13 14 14 14 15 16 18 21 19 5 6 6 12 18 12 3 2 5 4 3 2 4 5 6 5 6 3 6 3 5 4 11 4 7 11 8 19 19
10 11 12 12 14 13 14 14 15 16 16 16 16 17 18 5 2 0 10 19 17 10 4 4 5 2 4 6 5 4 5 6 5 3 2 4 4 4 8 8 9 10 20 18 18
9 10 11 12 13 14 14 14 15 15 15 16 16 15 6 5 11 7 13 13 9 7 1 5 5 5 5 5 3 4 4 4 4 2 3 1 1 4 3 4 7 11 15 20 17
7 9 10 11 12 13 14 15 16 16 15 15 14 12 4 8 5 7 6 7 3 3 4 3 5 6 4 5 8 6 6 4 5 4 2 3 2 4 2 2 8 13 13 11 12
7 7 8 11 11 13 14 16 17 17 16 13 10 6 7 18 5 7 8 5 3 5 2 3 7 3 5 4 6 4 6 1 4 5 3 1 4 4 5 3 6 7 7 8 8
10 9 8 10 13 15 17 18 19 19 17 13 8 2 9 7 6 12 6 6 8 7 5 7 4 5 5 6 2 7 5 6 5 7 2 2 4 2 4 5 5 6 6 5 6
10 11 11 11 13 16 19 19 20 10 5 5 2 3 13 9 5 9 8 6 3 4 6 6 6 6 4 2 2 2 5 4 3 4 4 3 4 4 3 3 6 5 6 7 7
11 12 13 13 14 16 22 18 7 3 3 5 3 3 6 6 5 5 5 6 5 3 3 5 4 4 3 4 9 4 6 2 5 6 1 3 4 4 5 4 8 9 10 11 9
11 12 14 15 15 17 12 5 7 6 3 6 5 6 15 7 9 4 6 3 1 3 4 5 4 8 4 4 4 3 6 5 2 5 5 9 7 11 8 6 7 8 7 8 7
11 12 15 17 15 15 5 5 6 4 11 8 15 11 16 5 7 2 3 2 3 3 3 2 7 8 8 8 9 6 6 4 1 2 1 4 9 6 7 6 7 9 8 7 6
12 13 14 16 17 4 2 6 3 6 2 10 6 5 6 7 5 7 6 3 3 3 8 6 5 7 7 6 12 4 6 4 4 2 3 4 6 6 4 5 3 2 4 4 8
12 13 13 17 4 2 3 2 4 5 4 7 4 5 2 4 5 5 5 4 2 1 3 5 3 6 2 4 7 6 5 5 6 5 4 2 5 5 3 5 3 5 3 1 2
11 12 12 7 5 3 1 4 5 2 5 6 5 3 6 3 4 3 3 1 4 2 4 5 3 2 3 4 5 6 5 7 5 4 2 2 2 6 1 5 6 4 3 2 3
11 10 11 2 1 6 6 6 2 6 5 8 5 5 7 1 3 5 2 5 3 1 0 2 2 2 2 3 3 7 8 9 5 3 2 6 6 6 6 7 4 3 1 4 6
9 10 7 3 4 5 5 2 6 4 4 9 5 7 4 5 7 2 4 6 3 4 6 4 3 1 1 5 4 5 6 3 2 2 5 3 4 9 5 4 5 7 2 5 5
10 9 5 6 2 5 4 4 4 3 5 5 4 7 4 6 4 6 1 3 5 3 3 5 4 3 3 4 5 4 7 6 6 5 4 2 7 6 3 4 6 7 5 5 6
9 2 3 4 4 3 4 3 4 3 4 6 9 4 5 3 2 6 4 1 2 3 5 2 7 9 3 3 7 4 4 3 5 3 3 4 5 4 3 4 4 7 7 6 6
2 4 4 1 6 3 5 4 4 5 4 2 2 2 4 5 6 6 6 3 4 0 2 5 0 5 6 1 2 4 6 5 2 4 4 3 3 6 5 6 5 5 7 5 5
3 4 4 3 3 5 3 5 5 6 3 4 4 4 6 4 2 3 4 1 1 4 4 2 5 3 2 2 6 2 2 2 4 3 5 0 6 6 10 10 11 8 8 8 7
2 2 3 2 4 1 2 4 4 5 1 5 3 5 4 3 4 3 4 2 3 2 4 1 2 1 4 2 0 2 1 4 5 3 3 4 7 2 7 9 9 9 8 7 7
2 3 3 3 0 3 6 5 3 3 3 2 4 4 2 4 4 3 4 1 1 4 3 4 3 4 3 4 3 2 4 3 5 4 4 6 7 4 4 8 8 10 8 8 8
3 3 4 4 1 1 3 5 5 3 5 4 4 2 2 3 3 5 4 1 3 1 2 1 0 3 4 5 3 3 3 3 5 4 4 6 4 3 5 9 7 7 8 9 8
2 3 2 3 3 2 2 3 5 6 3 3 4 2 4 4 5 2 2 5 2 1 2 2 2 2 4 4 2 3 4 6 7 5 6 4 7 6 10 13 12 9 7 8 7
3 2 1 2 3 2 2 3 1 6 3 5 2 7 3 4 4 6 3 2 4 3 2 1 1 3 3 2 2 4 6 5 5 3 4 4 5 4 4 7 6 9 10 10 6
1 2 3 2 1 0 4 2 1 4 6 5 4 4 6 5 4 4 4 3 5 3 1 2 2 3 4 4 6 7 6 6 4 4 6 6 9 4 4 6 6 8 10 7 7
Wind_Direction
351 348 350 346 345 345 338 340 343 346 336 334 337 336 332 327 320 286 245 223 225 298 320 314 319 325 217 242 199 139 94 194 213 162 248 165 166 132 133 125 237 169 150 199 137
345 351 346 344 339 338 334 335 344 339 332 333 337 336 329 324 308 269 243 240 303 338 305 320 323 343 269 220 213 152 159 209 216 192 240 252 182 151 132 146 217 196 81 137 138
345 348 339 337 336 331 331 327 327 326 327 329 334 333 329 326 308 259 201 193 350 346 226 295 301 299 246 196 208 186 196 199 254 253 254 247 175 165 124 226 210 192 155 148 149
343 340 342 334 338 332 332 325 322 320 324 328 330 332 325 321 346 282 358 324 339 329 149 150 214 216 232 206 210 175 206 185 230 341 357 169 135 165 164 214 187 183 161 154 163
340 336 334 331 332 332 327 320 318 316 316 320 325 334 349 336 250 291 326 332 334 351 233 179 182 186 208 203 215 211 191 203 152 293 356 239 180 204 235 313 115 127 165 172 169
328 330 328 334 330 327 323 316 311 308 308 308 315 326 305 289 257 255 305 323 285 348 357 203 220 227 284 236 181 203 179 230 223 198 306 115 331 167 345 7 120 151 175 174 174
315 319 330 328 321 315 312 308 305 303 301 300 311 312 263 261 256 307 319 254 206 208 232 240 233 318 348 282 236 154 141 229 225 193 188 134 354 339 311 80 157 154 153 160 182
318 319 325 322 319 313 311 309 303 297 289 288 294 327 255 256 277 286 259 270 236 223 220 245 226 217 215 307 268 148 110 159 201 153 256 142 224 264 331 140 180 156 157 172 192
315 315 314 315 313 313 311 309 306 322 290 252 226 145 268 291 254 260 184 248 217 194 208 230 135 182 263 212 359 243 172 161 171 207 138 128 214 236 326 150 189 182 199 201 223
315 315 311 311 314 318 314 314 322 69 113 145 175 287 263 297 311 265 233 247 228 139 213 166 181 169 182 171 202 176 118 87 154 198 47 142 210 261 228 218 201 194 207 195 200
311 312 307 309 319 323 334 7 11 356 40 231 236 244 284 295 255 274 282 127 305 87 181 194 164 207 170 196 248 174 136 148 229 181 143 198 210 220 232 244 244 235 245 234 188
313 309 311 314 317 321 316 86 142 207 307 233 246 246 261 264 296 240 124 86 158 210 235 8 206 219 192 216 200 202 176 179 43 110 121 164 243 235 210 237 217 229 236 220 154
312 309 312 314 313 327 318 158 160 146 252 292 227 225 256 162 254 277 158 165 219 222 202 174 225 167 183 187 200 189 155 168 160 74 48 98 307 248 223 221 185 41 172 176 176
311 310 316 326 320 299 238 194 295 165 45 278 293 276 226 232 280 235 203 194 46 322 224 190 288 148 130 220 179 210 165 135 132 123 196 161 259 259 266 235 195 119 108 174 172
304 310 316 347 297 270 305 0 296 62 2 306 315 289 303 236 301 255 163 329 28 241 92 241 54 164 134 213 134 232 145 160 146 95 115 229 120 260 170 243 215 185 168 249 293
304 307 323 4 261 257 334 334 28 38 304 331 317 312 348 238 251 288 350 48 7 85 103 276 317 77 115 33 159 143 74 51 53 77 261 214 162 272 200 213 173 181 159 330 319
304 302 309 304 233 337 341 23 27 81 349 301 315 327 326 299 314 337 13 8 18 13 13 17 323 41 158 76 36 100 90 53 53 207 229 149 140 249 299 247 181 160 108 359 353
306 300 262 229 239 12 26 29 34 276 267 292 335 323 355 342 318 338 94 45 344 78 60 27 328 7 328 150 183 181 156 156 179 173 206 83 223 252 303 30 91 102 101 63 57
321 337 281 270 206 114 64 36 214 301 302 313 321 329 323 318 301 356 27 335 172 144 80 90 306 301 220 184 150 183 187 228 67 42 96 212 291 310 71 76 90 109 88 74 75
15 349 273 68 129 74 75 243 233 217 295 286 294 2 314 315 354 19 360 344 335 139 189 205 152 253 286 179 280 164 178 75 91 216 227 279 277 239 210 192 165 144 127 125 105
38 12 308 119 72 49 173 235 276 254 230 207 248 277 253 288 294 301 299 248 274 292 220 174 193 200 208 229 175 127 135 128 132 131 156 360 266 214 205 188 180 177 173 163 151
68 358 311 27 36 16 226 201 290 291 294 279 252 227 239 291 285 291 285 212 357 330 341 124 140 197 187 265 251 133 202 191 120 208 93 136 277 351 252 177 161 173 178 178 170
53 271 319 72 321 316 295 283 256 288 284 273 275 217 201 270 297 235 293 166 294 13 26 353 0 358 24 18 15 158 238 95 80 73 187 130 264 15 109 146 183 168 178 181 181
77 350 328 41 135 207 325 280 297 268 266 268 262 284 318 300 231 294 305 316 329 103 136 193 212 169 192 221 179 258 217 152 127 119 176 217 253 226 188 185 188 181 186 185 182
57 251 185 276 291 223 342 283 297 339 309 303 312 281 316 306 314 319 304 313 162 1 58 77 221 210 246 237 262 259 242 186 197 174 162 238 205 243 203 199 195 186 163 175 178
163 147 17 257 301 276 199 254 307 330 275 307 227 308 320 260 244 291 338 306 286 345 54 46 278 348 305 335 316 276 265 221 223 177 260 169 252 228 122 113 154 184 175 191 167
289 314 111 280 298 106 233 224 342 333 284 245 309 317 300 279 277 262 247 254 253 299 273 43 55 43 278 345 331 300 233 202 203 188 160 189 226 164 179 199 196 193 190 175 142